Time,TemperatureF,DewpointF,PressureIn,WindDirection,WindDirectionDegrees,WindSpeedMPH,WindSpeedGustMPH,Humidity,HourlyPrecipIn,Conditions,Clouds,dailyrainin,SoftwareType,DateUTC
2013-06-22 00:02:00,69.2,60.0,30.09,ESE,123,0.0,0.0,73,0.00,,,0.00,weatherlink.com 1.10,2013-06-22 04:02:00,
2013-06-22 00:17:00,69.0,60.0,30.09,SE,130,0.0,0.0,74,0.00,,,0.00,weatherlink.com 1.10,2013-06-22 04:17:00,
2013-06-22 00:32:00,69.6,58.0,30.09,South,180,0.0,0.0,67,0.00,,,0.00,weatherlink.com 1.10,2013-06-22 04:32:00,
2013-06-22 00:47:00,70.2,58.0,30.08,SSE,150,0.0,1.0,65,0.00,,,0.00,weatherlink.com 1.10,2013-06-22 04:47:00,
2013-06-22 01:02:00,71.1,58.0,30.08,South,184,0.0,0.0,63,0.00,,,0.00,weatherlink.com 1.10,2013-06-22 05:02:00,
2013-06-22 01:17:00,71.3,58.0,30.08,South,189,0.0,0.0,64,0.00,,,0.00,weatherlink.com 1.10,2013-06-22 05:17:00,
2013-06-22 01:32:00,71.7,59.0,30.07,SSW,205,0.0,0.0,64,0.00,,,0.00,weatherlink.com 1.10,2013-06-22 05:32:00,
2013-06-22 01:47:00,72.5,59.0,30.07,SSW,198,1.0,5.0,63,0.00,,,0.00,weatherlink.com 1.10,2013-06-22 05:47:00,
2013-06-22 02:02:00,72.2,59.0,30.07,SSW,210,2.0,4.0,64,0.00,,,0.00,weatherlink.com 1.10,2013-06-22 06:02:00,
2013-06-22 02:17:00,72.1,60.0,30.07,SW,216,0.0,3.0,66,0.00,,,0.00,weatherlink.com 1.10,2013-06-22 06:17:00,
2013-06-22 02:32:00,72.1,60.0,30.07,South,180,1.0,3.0,65,0.00,,,0.00,weatherlink.com 1.10,2013-06-22 06:32:00,
2013-06-22 02:47:00,73.0,61.0,30.06,SE,134,4.0,6.0,66,0.00,,,0.00,weatherlink.com 1.10,2013-06-22 06:47:00,
2013-06-22 03:02:00,73.8,61.0,30.06,SSW,196,2.0,4.0,64,0.00,,,0.00,weatherlink.com 1.10,2013-06-22 07:02:00,
2013-06-22 03:18:00,74.0,61.0,30.05,SSW,213,2.0,7.0,64,0.00,,,0.00,weatherlink.com 1.10,2013-06-22 07:18:00,
2013-06-22 03:33:00,74.2,62.0,30.04,South,175,1.0,5.0,65,0.00,,,0.00,weatherlink.com 1.10,2013-06-22 07:33:00,
2013-06-22 03:48:00,74.5,62.0,30.04,WSW,247,5.0,5.0,65,0.00,,,0.00,weatherlink.com 1.10,2013-06-22 07:48:00,
2013-06-22 04:03:00,74.4,62.0,30.04,SSW,208,1.0,6.0,65,0.00,,,0.00,weatherlink.com 1.10,2013-06-22 08:03:00,
2013-06-22 04:18:00,74.3,61.0,30.04,SE,130,1.0,7.0,64,0.00,,,0.00,weatherlink.com 1.10,2013-06-22 08:18:00,
2013-06-22 04:33:00,74.0,61.0,30.03,South,188,1.0,4.0,65,0.00,,,0.00,weatherlink.com 1.10,2013-06-22 08:33:00,
2013-06-22 04:48:00,73.7,62.0,30.03,SE,130,0.0,3.0,67,0.00,,,0.00,weatherlink.com 1.10,2013-06-22 08:48:00,
2013-06-22 05:03:00,73.3,62.0,30.03,SW,223,0.0,4.0,67,0.00,,,0.00,weatherlink.com 1.10,2013-06-22 09:03:00,
2013-06-22 05:18:00,72.8,62.0,30.03,SSE,151,0.0,4.0,69,0.00,,,0.00,weatherlink.com 1.10,2013-06-22 09:18:00,
2013-06-22 05:33:00,72.3,62.0,30.02,South,184,3.0,5.0,70,0.00,,,0.00,weatherlink.com 1.10,2013-06-22 09:33:00,
2013-06-22 05:48:00,72.3,62.0,30.03,SW,232,3.0,7.0,69,0.00,,,0.00,weatherlink.com 1.10,2013-06-22 09:48:00,
2013-06-22 06:03:00,72.5,62.0,30.04,South,181,4.0,6.0,70,0.00,,,0.00,weatherlink.com 1.10,2013-06-22 10:03:00,
2013-06-22 06:18:00,72.7,62.0,30.04,SSW,205,4.0,6.0,70,0.00,,,0.00,weatherlink.com 1.10,2013-06-22 10:18:00,
2013-06-22 06:33:00,72.7,63.0,30.03,SSW,192,1.0,9.0,71,0.00,,,0.00,weatherlink.com 1.10,2013-06-22 10:33:00,
2013-06-22 06:48:00,72.9,63.0,30.04,West,264,2.0,5.0,72,0.00,,,0.00,weatherlink.com 1.10,2013-06-22 10:48:00,
2013-06-22 07:03:00,73.0,64.0,30.04,South,188,3.0,5.0,73,0.00,,,0.00,weatherlink.com 1.10,2013-06-22 11:03:00,
2013-06-22 07:18:00,72.8,64.0,30.05,NW,305,1.0,8.0,74,0.00,,,0.00,weatherlink.com 1.10,2013-06-22 11:18:00,
2013-06-22 07:33:00,73.1,64.0,30.05,WSW,246,4.0,6.0,74,0.00,,,0.00,weatherlink.com 1.10,2013-06-22 11:33:00,
2013-06-22 07:48:00,74.1,65.0,30.05,West,260,8.0,10.0,73,0.00,,,0.00,weatherlink.com 1.10,2013-06-22 11:48:00,
2013-06-22 08:04:00,75.0,65.0,30.05,West,279,6.0,8.0,71,0.00,,,0.00,weatherlink.com 1.10,2013-06-22 12:04:00,
2013-06-22 08:22:00,75.3,65.0,30.06,WNW,295,2.0,9.0,71,0.00,,,0.00,weatherlink.com 1.10,2013-06-22 12:22:00,
2013-06-22 08:38:00,75.5,66.0,30.06,WNW,287,1.0,8.0,72,0.00,,,0.00,weatherlink.com 1.10,2013-06-22 12:38:00,
2013-06-22 08:56:00,76.7,66.0,30.06,SW,222,3.0,10.0,70,0.00,,,0.00,weatherlink.com 1.10,2013-06-22 12:56:00,
2013-06-22 09:13:00,77.4,68.0,30.06,West,265,6.0,9.0,72,0.00,,,0.00,weatherlink.com 1.10,2013-06-22 13:13:00,
2013-06-22 09:30:00,78.4,68.0,30.06,WSW,246,5.0,11.0,71,0.00,,,0.00,weatherlink.com 1.10,2013-06-22 13:30:00,
2013-06-22 09:48:00,78.4,68.0,30.07,West,273,2.0,13.0,70,0.00,,,0.00,weatherlink.com 1.10,2013-06-22 13:48:00,
2013-06-22 10:05:00,78.6,69.0,30.07,SSW,195,1.0,12.0,72,0.00,,,0.00,weatherlink.com 1.10,2013-06-22 14:05:00,
2013-06-22 10:22:00,79.0,69.0,30.07,SW,216,3.0,11.0,71,0.00,,,0.00,weatherlink.com 1.10,2013-06-22 14:22:00,
2013-06-22 10:37:00,79.7,69.0,30.07,West,261,7.0,12.0,69,0.00,,,0.00,weatherlink.com 1.10,2013-06-22 14:37:00,
2013-06-22 10:52:00,80.4,70.0,30.07,SW,221,2.0,9.0,70,0.00,,,0.00,weatherlink.com 1.10,2013-06-22 14:52:00,
2013-06-22 11:07:00,81.1,70.0,30.06,WNW,287,1.0,7.0,68,0.00,,,0.00,weatherlink.com 1.10,2013-06-22 15:07:00,
2013-06-22 11:22:00,81.5,70.0,30.06,NW,304,3.0,8.0,69,0.00,,,0.00,weatherlink.com 1.10,2013-06-22 15:22:00,
2013-06-22 11:37:00,81.8,70.0,30.05,WSW,242,3.0,8.0,68,0.00,,,0.00,weatherlink.com 1.10,2013-06-22 15:37:00,
2013-06-22 11:52:00,82.1,71.0,30.06,SW,230,1.0,10.0,68,0.00,,,0.00,weatherlink.com 1.10,2013-06-22 15:52:00,
2013-06-22 12:07:00,82.4,70.0,30.06,SW,223,4.0,10.0,66,0.00,,,0.00,weatherlink.com 1.10,2013-06-22 16:07:00,
2013-06-22 12:22:00,82.5,71.0,30.06,WSW,240,8.0,11.0,68,0.00,,,0.00,weatherlink.com 1.10,2013-06-22 16:22:00,
2013-06-22 12:37:00,83.0,71.0,30.07,SSW,196,4.0,12.0,67,0.00,,,0.00,weatherlink.com 1.10,2013-06-22 16:37:00,
2013-06-22 12:52:00,83.8,72.0,30.06,SW,223,2.0,8.0,68,0.00,,,0.00,weatherlink.com 1.10,2013-06-22 16:52:00,
2013-06-22 13:07:00,84.1,73.0,30.06,SW,230,2.0,8.0,69,0.00,,,0.00,weatherlink.com 1.10,2013-06-22 17:07:00,
2013-06-22 13:22:00,84.1,72.0,30.06,WSW,257,3.0,10.0,66,0.00,,,0.00,weatherlink.com 1.10,2013-06-22 17:22:00,
2013-06-22 13:37:00,84.6,72.0,30.05,NW,306,0.0,4.0,67,0.00,,,0.00,weatherlink.com 1.10,2013-06-22 17:37:00,
2013-06-22 13:52:00,84.8,72.0,30.05,WSW,255,3.0,6.0,65,0.00,,,0.00,weatherlink.com 1.10,2013-06-22 17:52:00,
2013-06-22 14:07:00,85.0,73.0,30.03,WSW,254,8.0,9.0,67,0.00,,,0.00,weatherlink.com 1.10,2013-06-22 18:07:00,
2013-06-22 14:23:00,85.7,73.0,30.03,WNW,282,4.0,10.0,65,0.00,,,0.00,weatherlink.com 1.10,2013-06-22 18:23:00,
2013-06-22 14:38:00,86.9,73.0,30.02,WSW,252,4.0,12.0,64,0.00,,,0.00,weatherlink.com 1.10,2013-06-22 18:38:00,
2013-06-22 14:54:00,88.1,72.0,30.02,WSW,252,2.0,9.0,60,0.00,,,0.00,weatherlink.com 1.10,2013-06-22 18:54:00,
2013-06-22 15:12:00,88.8,73.0,30.01,NNW,340,5.0,10.0,60,0.00,,,0.00,weatherlink.com 1.10,2013-06-22 19:12:00,
2013-06-22 15:28:00,87.2,72.0,29.99,NW,312,1.0,8.0,61,0.00,,,0.00,weatherlink.com 1.10,2013-06-22 19:28:00,
2013-06-22 15:43:00,86.5,72.0,29.99,West,281,2.0,12.0,62,0.01,,,0.01,weatherlink.com 1.10,2013-06-22 19:43:00,
2013-06-22 15:58:00,76.2,70.0,29.98,NNW,340,2.0,7.0,80,0.26,,,0.26,weatherlink.com 1.10,2013-06-22 19:58:00,
2013-06-22 16:13:00,74.1,71.0,29.98,NNE,22,8.0,8.0,91,0.26,,,0.26,weatherlink.com 1.10,2013-06-22 20:13:00,
2013-06-22 16:28:00,73.0,70.0,29.98,North,5,8.0,22.0,89,0.34,,,0.34,weatherlink.com 1.10,2013-06-22 20:28:00,
2013-06-22 16:43:00,72.9,70.0,29.99,NNW,330,2.0,11.0,91,0.58,,,0.61,weatherlink.com 1.10,2013-06-22 20:43:00,
2013-06-22 16:58:00,72.4,70.0,29.98,WSW,255,1.0,5.0,91,0.57,,,0.83,weatherlink.com 1.10,2013-06-22 20:58:00,